Temp
22 21 20 19 20 21 23 23 24 24 23 24 23 21 20 19 20 18 19 19 19 19 19 19 19 19 19 18 18 18 18 18 18 17 17 17 18 18 18 18 17 17 18 17 18 18 19 19 19
22 21 19 20 21 21 22 25 24 24 24 24 22 22 20 18 20 19 18 19 20 20 19 19 18 19 19 18 18 18 18 18 18 17 18 17 17 17 17 17 17 17 17 17 17 17 19 19 19
22 20 20 21 23 22 23 25 25 25 24 25 24 22 21 19 20 20 20 20 20 20 19 19 19 18 19 18 18 18 19 19 18 17 18 18 17 17 17 17 17 17 17 17 18 18 18 19 18
19 19 21 23 25 26 25 26 25 24 24 23 22 21 21 21 21 21 20 19 20 20 19 19 19 19 19 18 18 18 19 18 18 17 18 18 17 17 17 17 17 17 17 18 18 18 19 19 18
22 21 23 24 26 26 26 26 24 25 23 23 22 21 21 21 21 21 21 20 20 20 20 20 19 19 19 19 19 18 19 19 18 18 18 18 18 17 17 17 17 17 18 17 18 18 19 19 18
21 22 25 25 26 28 27 26 25 24 24 24 21 21 20 20 21 20 20 20 21 20 20 20 20 20 20 19 20 18 18 19 19 18 17 18 18 18 17 17 17 18 18 18 18 18 18 18 18
22 20 26 26 27 27 28 26 26 25 24 25 22 21 20 20 21 21 20 21 21 21 21 21 20 20 20 20 19 19 19 19 19 19 18 17 18 17 17 17 17 17 18 18 19 19 19 18 18
24 21 25 27 27 27 28 28 27 26 26 24 22 21 20 21 21 21 20 20 20 20 21 21 21 20 20 20 20 20 20 19 19 18 18 18 18 18 17 17 18 18 18 18 19 19 19 19 19
25 24 27 28 28 29 29 29 28 28 26 25 24 23 22 22 21 21 20 20 20 20 20 21 20 21 20 20 19 20 20 19 19 18 18 18 18 18 18 18 18 18 18 19 19 19 19 19 19
27 28 29 30 29 29 30 29 29 28 27 25 23 22 22 22 22 22 21 20 20 20 20 20 20 20 20 20 19 19 19 18 19 18 18 18 18 18 18 18 18 18 18 19 19 19 19 19 19
32 29 31 31 31 31 30 29 29 29 27 25 24 23 23 23 22 22 21 21 20 20 20 20 20 20 20 20 20 20 19 19 19 19 18 18 18 18 18 18 18 18 18 18 18 19 19 19 20
31 32 32 31 31 31 30 30 30 30 27 26 24 24 23 23 22 22 22 21 21 21 21 20 21 20 20 20 20 20 19 19 19 18 18 18 18 18 18 18 18 18 18 18 19 19 18 19 19
32 32 32 31 31 31 30 30 30 30 27 26 25 24 24 23 23 22 22 22 21 21 21 21 21 21 20 20 20 20 19 19 19 18 18 18 19 18 18 18 18 18 18 18 18 18 18 19 18
33 32 32 32 32 31 31 31 31 30 28 26 25 25 24 24 24 23 23 23 22 22 22 22 21 21 21 20 20 20 19 19 19 18 19 19 19 18 18 18 18 18 19 18 18 18 18 18 18
33 31 31 31 31 31 32 29 29 31 28 27 26 26 25 25 25 24 24 23 22 22 22 22 21 21 21 20 19 19 19 20 20 19 19 19 19 19 18 18 18 18 19 19 18 18 18 18 18
29 29 28 31 31 32 30 26 29 31 30 27 27 27 26 26 26 25 24 24 23 22 22 21 21 21 21 21 20 20 20 20 19 19 19 20 19 19 19 18 18 18 18 18 18 18 18 18 18
25 25 26 28 31 30 30 27 29 30 30 28 28 27 27 27 27 26 25 24 23 23 22 22 21 21 21 20 20 20 20 20 19 20 19 19 20 20 19 19 18 18 18 18 18 18 18 18 18
24 24 27 25 27 27 27 27 28 30 30 29 28 28 28 27 27 27 25 25 24 23 23 23 22 21 21 21 20 20 20 20 19 20 20 19 20 19 19 18 19 19 19 18 18 18 18 18 18
27 26 26 26 26 23 24 26 28 29 30 29 29 28 28 28 28 27 26 25 24 24 23 23 22 21 21 21 21 21 21 21 20 20 20 19 19 19 19 19 19 18 19 19 19 19 18 18 18
26 26 23 21 22 24 23 20 20 21 21 25 29 28 28 28 28 27 27 26 25 24 24 23 22 22 22 21 21 22 22 21 20 20 19 19 20 20 20 19 18 18 19 19 19 19 18 18 18
27 25 25 22 20 22 22 17 17 20 23 24 29 29 29 28 28 27 26 26 25 24 24 23 22 22 22 22 21 22 21 21 21 21 21 20 20 20 20 19 18 18 19 20 19 19 19 19 19
28 29 28 28 23 24 29 22 20 22 21 25 29 29 29 29 28 27 26 26 25 25 24 23 22 22 22 22 22 21 21 21 21 21 21 20 19 20 20 20 20 19 20 19 19 19 19 19 19
33 32 31 26 25 28 29 24 23 21 23 27 28 30 30 29 29 27 26 26 26 25 24 24 23 22 22 22 22 21 21 21 21 21 21 19 20 19 20 20 19 20 20 20 20 20 19 19 19
35 33 32 32 29 27 28 24 22 23 24 28 28 30 30 29 29 28 27 27 26 25 25 24 24 23 22 22 22 21 22 22 21 21 21 20 20 19 19 19 19 20 20 20 20 20 19 19 20
34 30 25 26 25 26 25 24 23 24 27 29 30 30 31 30 29 29 28 27 27 26 25 24 24 24 23 22 22 21 21 22 21 21 21 20 19 18 19 19 18 19 20 20 20 20 19 19 20
30 29 24 27 25 27 26 24 27 27 30 28 28 27 29 30 30 30 29 28 27 26 25 25 24 24 24 24 22 22 22 21 21 21 21 20 21 21 21 20 19 19 19 20 19 19 20 20 20
29 28 29 28 29 28 26 27 29 27 27 27 27 28 28 32 30 30 30 29 28 27 26 26 25 24 24 24 23 22 22 21 21 21 21 21 21 22 22 21 21 19 19 20 20 20 20 19 19
29 30 27 25 26 26 26 26 26 25 27 27 28 29 30 32 31 30 30 30 28 28 27 26 26 26 25 24 23 23 22 21 21 21 21 21 22 21 21 21 21 21 20 20 20 19 20 20 20
29 28 28 27 26 25 25 25 28 27 29 30 31 25 31 33 32 31 30 30 29 28 27 27 26 25 25 24 24 23 22 22 21 22 22 22 22 22 21 21 21 21 20 20 20 20 20 20 20
31 28 27 23 25 25 25 27 31 30 31 33 30 33 33 33 33 32 31 30 29 28 28 27 27 26 25 25 24 24 22 22 21 21 22 22 22 21 21 21 21 21 20 20 20 20 20 20 20
Height
1501 1503 1504 1504 1512 1508 1515 1517 1508 1513 1515 1516 1517 1519 1526 1529 1531 1547 1544 1546 1550 1552 1554 1556 1558 1560 1562 1563 1563 1564 1565 1566 1567 1567 1566 1566 1567 1568 1568 1568 1569 1571 1572 1572 1573 1574 1575 1578 1579
1501 1502 1502 1502 1512 1523 1523 1508 1512 1512 1514 1517 1519 1523 1527 1535 1532 1538 1543 1547 1550 1553 1554 1557 1559 1561 1563 1564 1565 1566 1567 1568 1568 1569 1568 1568 1568 1568 1569 1569 1570 1573 1574 1575 1575 1576 1577 1579 1581
1504 1503 1503 1498 1503 1519 1520 1509 1510 1514 1515 1516 1519 1524 1529 1536 1538 1540 1543 1546 1549 1553 1555 1557 1559 1562 1564 1565 1566 1567 1569 1569 1570 1571 1571 1571 1570 1570 1570 1569 1571 1573 1575 1577 1578 1579 1579 1581 1583
1505 1505 1505 1502 1502 1501 1506 1509 1512 1515 1515 1517 1520 1527 1534 1537 1539 1539 1545 1547 1549 1553 1556 1558 1560 1563 1565 1566 1568 1569 1570 1571 1572 1572 1572 1573 1573 1572 1572 1571 1573 1575 1577 1578 1579 1581 1582 1584 1585
1497 1498 1498 1502 1499 1499 1504 1508 1513 1515 1519 1521 1521 1529 1535 1540 1543 1543 1543 1545 1549 1553 1556 1558 1561 1563 1565 1567 1569 1569 1571 1572 1572 1573 1572 1573 1574 1574 1575 1575 1576 1577 1578 1580 1581 1583 1585 1586 1587
1501 1502 1503 1507 1497 1497 1502 1508 1512 1516 1519 1521 1525 1530 1537 1541 1544 1546 1546 1548 1550 1551 1556 1558 1561 1563 1566 1567 1570 1570 1571 1573 1573 1573 1573 1573 1574 1575 1576 1577 1579 1580 1581 1582 1583 1585 1587 1589 1590
1500 1502 1498 1496 1496 1499 1502 1506 1510 1515 1518 1520 1523 1529 1538 1541 1543 1545 1547 1547 1550 1553 1556 1559 1560 1563 1566 1568 1569 1571 1572 1573 1573 1573 1573 1573 1575 1576 1577 1578 1580 1581 1583 1584 1586 1587 1588 1590 1592
1500 1501 1497 1491 1492 1500 1499 1503 1508 1508 1515 1519 1521 1528 1535 1538 1541 1544 1547 1549 1551 1553 1556 1559 1561 1564 1566 1568 1569 1571 1572 1572 1572 1573 1572 1572 1574 1575 1577 1579 1581 1582 1584 1586 1587 1589 1590 1591 1593
1485 1498 1493 1487 1489 1493 1496 1499 1505 1508 1511 1515 1520 1520 1531 1537 1541 1545 1548 1549 1550 1554 1557 1560 1562 1565 1567 1568 1570 1570 1571 1572 1572 1573 1573 1573 1574 1576 1577 1579 1581 1583 1584 1585 1588 1590 1592 1593 1594
1482 1484 1482 1478 1484 1490 1495 1499 1504 1508 1511 1517 1522 1528 1534 1539 1543 1545 1547 1548 1550 1553 1556 1558 1562 1563 1566 1567 1569 1570 1571 1572 1572 1573 1574 1574 1575 1576 1577 1579 1581 1583 1584 1586 1588 1589 1591 1593 1594
1475 1484 1479 1484 1487 1491 1495 1500 1503 1504 1510 1514 1519 1526 1532 1536 1541 1545 1548 1550 1550 1553 1555 1557 1559 1562 1564 1565 1569 1570 1571 1571 1572 1573 1572 1574 1575 1576 1576 1578 1580 1582 1584 1585 1587 1589 1590 1592 1593
1478 1477 1483 1487 1490 1493 1496 1499 1500 1501 1505 1510 1517 1523 1529 1533 1537 1542 1546 1548 1550 1552 1555 1557 1560 1562 1564 1567 1569 1570 1571 1571 1571 1572 1573 1573 1574 1574 1576 1577 1579 1581 1583 1585 1587 1588 1590 1591 1593
1479 1479 1484 1489 1491 1493 1496 1496 1497 1500 1505 1510 1516 1525 1530 1534 1536 1540 1544 1547 1549 1551 1554 1558 1561 1561 1565 1567 1568 1569 1571 1571 1571 1572 1573 1574 1574 1574 1575 1577 1579 1581 1583 1585 1586 1588 1589 1591 1593
1477 1480 1484 1488 1489 1490 1492 1493 1497 1501 1503 1509 1515 1522 1528 1531 1533 1537 1540 1544 1546 1550 1552 1556 1559 1561 1563 1566 1567 1570 1571 1571 1572 1572 1573 1574 1575 1576 1576 1577 1579 1581 1583 1584 1586 1588 1590 1590 1592
1479 1483 1483 1485 1488 1490 1491 1497 1497 1498 1504 1507 1513 1519 1524 1527 1530 1532 1536 1539 1542 1548 1552 1555 1556 1560 1562 1565 1567 1569 1571 1572 1572 1573 1573 1574 1575 1577 1579 1579 1580 1582 1584 1584 1585 1587 1590 1591 1592
1486 1486 1501 1485 1487 1489 1492 1512 1496 1499 1503 1507 1511 1516 1521 1524 1527 1530 1532 1536 1540 1545 1549 1553 1555 1559 1561 1563 1567 1569 1571 1571 1573 1575 1573 1574 1574 1577 1579 1581 1581 1581 1583 1585 1585 1587 1588 1589 1589
1501 1512 1504 1497 1488 1490 1493 1505 1499 1500 1504 1508 1510 1514 1518 1522 1526 1528 1530 1534 1538 1542 1547 1551 1554 1556 1560 1563 1567 1569 1570 1569 1573 1573 1573 1574 1575 1577 1579 1581 1582 1583 1583 1583 1585 1586 1587 1588 1588
1518 1516 1504 1512 1500 1503 1498 1501 1498 1499 1503 1507 1511 1514 1517 1519 1523 1527 1529 1533 1537 1540 1545 1550 1552 1554 1558 1562 1565 1568 1569 1569 1570 1571 1572 1574 1577 1578 1579 1580 1582 1583 1582 1583 1583 1585 1585 1587 1587
1497 1507 1512 1502 1508 1523 1516 1507 1502 1502 1501 1504 1509 1513 1516 1518 1522 1525 1529 1532 1536 1538 1543 1548 1551 1553 1557 1560 1563 1566 1566 1567 1568 1571 1571 1574 1576 1578 1579 1580 1583 1584 1582 1582 1582 1584 1585 1586 1586
1493 1511 1521 1528 1511 1516 1512 1534 1511 1512 1510 1514 1504 1509 1512 1516 1519 1523 1527 1532 1533 1537 1541 1547 1549 1551 1555 1559 1562 1563 1564 1567 1569 1570 1573 1572 1574 1575 1577 1579 1582 1581 1582 1581 1581 1583 1585 1585 1584
1480 1500 1507 1517 1514 1506 1514 1552 1528 1513 1496 1503 1504 1503 1505 1508 1514 1519 1524 1529 1532 1535 1539 1545 1547 1549 1554 1559 1561 1562 1564 1567 1568 1569 1570 1571 1571 1573 1575 1577 1579 1580 1580 1580 1580 1581 1584 1585 1584
1477 1473 1485 1498 1514 1515 1485 1541 1531 1505 1503 1498 1493 1494 1498 1501 1506 1512 1519 1525 1528 1533 1538 1542 1544 1548 1553 1556 1559 1561 1563 1565 1566 1567 1568 1569 1570 1573 1573 1575 1576 1579 1581 1583 1582 1581 1582 1583 1585
1455 1451 1462 1488 1486 1484 1483 1512 1510 1514 1506 1486 1482 1484 1487 1491 1498 1504 1511 1518 1525 1528 1533 1537 1540 1545 1551 1554 1558 1560 1561 1563 1564 1565 1565 1560 1568 1568 1569 1572 1573 1575 1577 1579 1579 1580 1581 1581 1582
1439 1449 1454 1456 1467 1502 1482 1504 1514 1500 1485 1472 1472 1475 1482 1484 1490 1498 1505 1511 1518 1524 1528 1533 1536 1541 1547 1552 1555 1557 1560 1563 1564 1565 1566 1567 1568 1569 1570 1572 1574 1575 1576 1577 1578 1578 1579 1580 1581
1442 1463 1506 1507 1509 1514 1480 1503 1510 1481 1464 1455 1460 1469 1473 1479 1485 1491 1498 1505 1512 1516 1522 1527 1531 1536 1541 1547 1551 1554 1559 1561 1562 1564 1563 1563 1564 1558 1571 1572 1573 1575 1576 1575 1575 1576 1577 1579 1579
1453 1463 1503 1514 1515 1504 1484 1513 1487 1462 1454 1458 1461 1467 1473 1473 1479 1485 1491 1497 1505 1510 1515 1520 1526 1531 1537 1541 1546 1551 1557 1560 1562 1562 1561 1562 1563 1564 1563 1568 1570 1573 1575 1575 1573 1575 1577 1578 1578
1454 1468 1453 1474 1469 1492 1492 1484 1466 1457 1459 1457 1459 1468 1470 1470 1473 1478 1487 1492 1500 1505 1509 1513 1520 1527 1533 1537 1542 1547 1553 1558 1558 1558 1560 1561 1562 1561 1560 1563 1568 1570 1571 1573 1572 1574 1576 1576 1576
1443 1443 1478 1476 1505 1510 1492 1484 1480 1470 1458 1459 1467 1471 1464 1468 1470 1476 1482 1487 1495 1501 1505 1510 1515 1521 1528 1534 1538 1544 1549 1555 1555 1556 1558 1560 1561 1559 1551 1561 1564 1564 1567 1571 1571 1573 1574 1574 1575
1448 1457 1455 1464 1476 1502 1508 1493 1445 1454 1449 1453 1453 1470 1456 1456 1462 1471 1478 1484 1490 1497 1501 1507 1512 1519 1525 1531 1536 1541 1547 1552 1552 1553 1556 1558 1559 1560 1561 1562 1564 1565 1567 1570 1570 1571 1572 1573 1574
1428 1445 1449 1487 1488 1477 1482 1483 1436 1437 1438 1437 1439 1441 1444 1449 1457 1464 1473 1481 1486 1493 1498 1503 1509 1515 1521 1526 1532 1537 1543 1549 1551 1551 1554 1556 1558 1560 1560 1561 1563 1566 1566 1566 1568 1570 1571 1570 1571
Wind_Speed
9 7 5 1 1 3 3 6 10 10 5 8 15 12 11 10 6 9 24 18 18 22 21 18 17 15 14 15 16 15 15 14 15 15 16 15 13 10 12 12 13 13 14 15 16 15 17 18 20
10 10 5 2 3 6 3 7 11 11 14 15 21 19 12 8 18 23 31 21 16 22 21 19 17 14 14 13 15 14 13 12 14 13 14 15 12 11 10 13 14 14 15 16 16 16 17 21 23
10 6 2 3 2 5 7 12 16 15 15 6 8 16 11 19 26 24 25 17 23 21 20 18 17 14 12 13 13 12 11 11 12 12 12 15 14 13 11 15 16 17 17 17 16 16 17 24 26
8 6 7 1 13 9 16 15 19 11 10 8 13 12 13 17 27 29 23 23 21 18 19 17 16 13 12 12 11 11 9 11 11 10 11 13 13 13 15 18 18 19 19 17 16 16 18 26 26
4 8 3 7 15 15 13 22 19 9 7 20 21 13 15 21 26 27 28 24 19 19 17 17 15 13 11 10 9 11 10 8 8 9 10 12 11 13 15 18 18 20 19 17 17 18 22 27 24
2 7 2 8 15 13 12 24 20 13 21 23 22 20 11 29 30 28 26 22 17 16 16 17 15 14 12 11 8 9 9 6 7 8 9 10 11 12 14 15 17 18 18 18 20 21 24 26 24
5 7 6 13 17 11 11 26 19 20 21 18 22 10 22 27 33 30 24 20 19 19 16 17 16 14 12 10 8 6 5 5 5 6 7 7 10 11 11 14 14 16 17 19 19 20 22 23 22
10 3 4 12 13 12 15 12 19 28 18 27 32 8 25 27 32 31 25 22 16 14 19 17 15 12 11 9 5 4 3 5 5 5 4 5 9 12 11 13 14 15 17 17 17 18 19 21 20
18 4 4 8 11 7 20 10 24 23 29 18 21 29 35 27 26 26 29 23 19 16 10 15 13 10 9 6 4 5 5 6 6 4 9 8 9 10 13 13 13 14 15 15 15 15 16 19 19
8 3 11 9 10 5 22 20 22 20 22 25 27 32 31 29 31 30 28 27 21 16 13 12 11 10 7 7 4 5 8 8 6 2 6 6 8 9 13 11 13 14 14 14 13 12 12 15 18
4 8 10 15 18 14 20 22 21 15 14 35 37 37 35 31 28 27 22 21 21 17 13 13 7 7 9 4 5 8 8 6 5 3 4 4 7 9 12 12 13 15 15 15 14 12 11 13 19
12 19 18 15 18 13 11 17 16 18 28 39 40 37 37 33 31 26 27 26 24 21 19 19 10 13 16 6 4 5 5 4 3 3 1 3 3 7 11 12 12 13 13 12 12 12 12 14 12
6 13 18 15 17 17 21 16 11 16 39 39 38 34 34 33 29 24 26 23 21 21 21 23 17 20 15 12 6 6 7 5 5 7 2 2 4 8 14 14 13 12 11 11 11 13 14 9 13
18 18 19 17 14 18 13 8 11 24 37 39 38 35 33 30 30 28 27 25 27 20 22 25 20 18 18 16 11 8 11 9 10 11 6 4 5 8 11 14 13 10 7 10 9 7 10 14 10
24 12 10 12 15 7 17 7 6 18 34 37 36 34 33 31 32 35 32 27 24 23 19 22 19 15 16 19 14 11 12 11 12 11 5 5 6 9 13 12 14 12 10 10 8 9 11 13 13
7 6 3 8 11 5 11 8 8 22 24 32 34 33 32 29 29 33 29 27 24 18 22 23 22 16 14 19 18 11 14 9 7 7 6 1 5 9 12 11 11 11 13 13 11 12 11 13 16
7 0 3 7 2 1 3 3 2 23 19 25 28 30 31 27 28 30 32 26 23 19 25 24 19 18 12 13 12 9 10 9 9 6 7 4 2 7 11 10 10 5 11 12 11 11 11 15 14
7 5 5 4 6 11 1 5 3 23 23 21 26 27 27 28 27 27 27 25 19 20 25 17 18 23 14 14 10 10 8 10 7 5 5 6 3 6 13 12 10 10 13 14 11 13 14 16 14
11 9 7 8 14 18 18 7 2 7 20 22 25 28 26 27 24 28 24 24 23 25 28 21 18 25 19 16 14 11 12 9 7 8 8 7 4 6 13 9 9 9 10 9 12 10 10 8 10
18 11 5 9 23 14 16 2 23 29 23 17 26 30 29 27 27 29 26 23 28 27 26 25 21 21 19 12 6 11 10 13 10 9 7 8 5 6 11 10 8 9 10 7 10 9 8 6 6
14 21 20 15 21 17 11 1 17 16 28 26 28 34 34 32 29 32 29 27 29 28 27 22 25 22 20 14 14 13 14 12 12 8 11 7 7 7 10 10 9 11 9 5 7 7 9 4 5
11 25 28 23 13 7 22 6 13 17 15 15 31 36 36 36 32 35 32 28 30 30 25 22 26 24 23 17 16 15 10 10 10 7 10 9 8 7 12 10 10 9 8 7 12 15 11 6 4
7 24 26 32 13 6 7 6 5 7 15 8 12 33 40 40 39 38 36 33 32 32 29 25 24 26 22 20 18 16 13 9 10 7 2 19 11 11 11 10 8 10 9 8 10 13 9 7 6
4 6 6 6 4 5 5 6 5 3 8 7 11 21 25 42 42 40 39 34 38 37 34 28 24 23 23 22 22 19 16 16 9 6 7 2 7 8 8 8 7 6 8 8 10 12 9 8 10
4 5 4 5 4 2 12 8 6 11 11 11 11 19 20 45 42 41 42 40 40 41 37 33 29 24 21 22 26 21 15 16 12 7 4 6 5 4 4 6 7 8 7 7 9 8 7 13 11
8 8 5 6 6 4 8 8 6 18 26 22 23 17 19 42 42 43 42 43 42 41 40 36 33 28 24 23 24 25 18 17 12 9 7 8 8 6 12 11 8 8 8 6 5 7 9 8 8
9 6 8 4 8 2 5 5 4 8 18 21 26 17 31 31 42 46 41 41 44 42 43 39 35 32 27 23 24 25 22 19 14 14 9 11 8 11 10 20 9 8 8 9 6 8 7 9 6
10 8 4 3 5 5 6 7 6 10 20 15 14 26 44 34 40 43 41 41 43 41 41 38 34 31 28 24 22 24 23 19 17 15 13 6 2 6 11 23 16 11 9 9 7 8 7 6 8
3 5 5 2 4 3 1 5 8 9 7 3 14 25 37 41 39 42 43 38 39 41 42 39 35 31 28 24 21 23 23 21 21 16 10 10 6 6 17 16 15 11 10 8 8 9 5 8 9
9 11 10 5 9 4 5 4 8 13 12 22 40 23 38 42 41 43 43 40 40 42 40 40 34 29 25 19 21 20 20 21 25 21 12 6 9 8 10 11 11 12 9 8 8 9 10 10 9
Wind_Direction
175 169 180 48 59 89 48 107 122 116 77 94 66 77 89 51 49 118 143 155 146 145 139 136 128 121 116 106 101 95 85 80 82 77 76 79 82 93 111 125 132 128 121 119 122 119 116 116 113
176 170 164 234 111 94 86 130 124 104 113 111 95 97 77 75 103 124 136 155 157 149 142 138 130 124 119 112 105 99 92 86 85 80 80 79 91 86 100 123 136 133 126 121 121 119 113 117 118
171 200 256 198 194 121 124 113 113 114 127 119 117 90 86 127 129 136 139 144 151 151 149 144 137 132 129 122 113 107 94 87 84 78 78 77 83 81 89 123 134 134 129 124 124 119 115 121 120
165 258 256 196 97 112 125 124 110 106 86 81 99 83 99 144 130 142 141 136 141 133 152 148 144 141 139 133 125 106 94 90 82 76 80 85 83 90 93 114 126 129 129 128 125 123 123 130 121
243 244 218 110 108 117 133 127 130 126 109 106 107 116 115 145 141 143 151 156 150 143 151 151 150 146 146 138 133 120 103 86 89 82 88 95 94 92 97 114 123 129 131 128 123 119 125 134 131
97 288 150 114 128 130 135 135 138 127 132 127 98 117 115 148 154 140 150 152 156 163 160 155 150 149 150 141 135 128 117 88 79 86 92 97 105 108 114 125 129 134 133 129 125 123 128 130 133
235 326 141 123 124 124 136 149 153 144 149 141 127 118 144 157 159 150 154 169 158 149 164 161 154 152 148 144 138 125 110 105 87 89 91 106 117 121 126 135 136 143 140 136 127 124 132 138 134
262 145 287 133 133 142 146 141 149 159 156 143 143 150 160 157 152 154 164 173 168 173 162 165 155 149 150 146 135 111 96 102 104 107 106 125 138 135 146 146 151 153 151 149 139 131 127 138 139
244 222 137 115 105 151 153 157 165 143 138 162 178 160 156 161 159 163 160 162 158 153 158 170 160 159 154 120 120 101 117 113 125 130 76 96 139 146 144 157 158 163 164 166 162 151 137 134 143
205 66 68 103 116 154 145 129 129 151 157 124 124 142 152 163 160 151 160 159 169 168 164 148 143 132 134 111 51 107 131 122 113 91 86 113 136 152 152 155 170 173 173 172 174 173 170 165 146
237 103 102 120 128 147 117 132 149 161 137 137 142 150 156 161 168 174 171 176 173 172 171 171 170 161 157 119 79 120 127 131 110 81 70 110 132 161 161 164 171 181 180 179 171 167 162 163 172
99 103 103 120 142 134 127 161 166 165 143 146 148 156 161 169 173 176 179 177 183 185 179 195 193 211 187 202 178 120 133 136 137 157 134 110 121 166 170 170 169 181 179 181 184 181 166 163 163
131 114 118 122 145 158 154 186 169 164 142 146 151 160 167 169 174 180 181 184 190 180 189 184 179 185 175 175 165 214 174 179 190 200 158 182 167 173 183 171 161 155 164 175 170 177 181 180 165
128 122 133 163 173 154 174 170 161 141 145 147 154 165 175 182 188 179 181 182 188 198 190 178 187 209 203 184 199 181 179 183 180 195 211 199 180 166 168 174 172 161 160 154 170 181 204 198 205
131 132 161 166 152 201 148 134 208 158 152 153 160 170 181 190 189 189 184 185 195 198 175 193 199 215 215 196 193 202 205 214 210 201 215 196 190 176 167 165 169 164 169 177 176 183 192 203 208
4 45 52 176 170 205 142 207 212 165 157 158 163 173 184 194 192 196 191 186 188 191 187 201 200 207 201 193 201 195 184 196 211 229 200 166 200 175 170 164 170 179 183 196 205 196 193 206 204
355 126 303 325 303 251 145 215 278 162 172 162 166 177 185 191 195 188 190 186 187 184 181 193 209 208 175 159 169 187 191 180 207 195 188 193 203 180 179 180 163 188 203 207 211 206 212 214 211
177 255 293 268 328 358 112 234 204 169 176 173 174 182 187 191 192 181 186 192 187 183 192 189 189 203 189 169 170 192 187 195 229 241 210 251 250 184 177 186 164 170 185 193 200 222 207 219 227
170 176 228 335 325 338 297 290 360 233 179 173 180 183 191 190 195 189 183 189 185 187 189 179 187 202 192 177 180 195 208 211 201 206 222 219 211 189 196 198 172 182 205 208 189 192 199 225 230
186 162 102 7 333 304 291 28 32 322 299 286 183 186 189 193 196 187 183 189 188 189 191 185 193 197 205 176 212 194 202 204 217 222 210 203 228 208 213 203 188 193 198 195 180 180 199 212 195
186 174 172 155 214 265 246 197 137 246 263 273 211 196 191 190 192 182 182 188 195 194 190 193 194 200 201 183 198 216 225 211 231 255 219 222 214 213 210 205 198 198 204 226 200 192 202 198 159
237 184 186 213 186 198 198 138 222 197 250 240 200 191 191 188 187 184 181 188 198 197 194 185 194 208 207 211 191 218 217 211 240 272 211 193 202 225 198 212 201 216 212 236 198 189 180 201 161
241 154 195 179 184 169 191 107 158 199 227 221 206 194 188 189 186 185 184 188 199 198 199 204 206 205 208 208 199 212 225 217 235 275 289 287 201 202 206 215 218 210 206 210 187 193 188 193 215
289 317 287 236 222 283 208 111 298 246 212 240 192 211 195 185 186 189 192 189 196 204 202 204 206 209 212 203 196 205 216 207 231 224 247 28 213 217 215 211 218 222 195 191 199 196 200 204 205
231 311 316 336 343 134 84 66 276 263 245 233 217 226 229 186 185 188 190 192 196 200 201 201 203 207 205 195 197 206 200 199 229 233 206 205 208 248 261 212 205 235 214 197 193 205 207 224 230
227 201 167 236 256 145 116 156 231 224 237 236 249 259 262 181 183 188 193 195 195 198 200 204 203 207 206 204 197 204 197 197 204 220 220 212 227 148 200 237 191 202 224 203 188 208 212 210 223
261 279 241 235 276 31 146 235 320 203 244 257 250 244 252 185 183 189 191 195 193 197 201 207 207 207 209 211 205 202 204 200 203 210 222 239 267 243 272 192 188 203 195 220 201 199 207 236 259
170 227 306 316 249 267 210 174 186 199 238 227 247 245 244 208 186 186 189 194 195 197 202 207 210 209 209 212 212 206 203 194 198 206 219 228 232 306 141 175 165 176 192 212 207 216 215 235 251
169 221 263 201 172 187 228 272 203 188 258 209 283 188 225 185 186 183 188 188 195 194 199 201 206 205 204 209 211 209 203 191 203 213 211 226 229 129 145 154 166 189 199 219 216 223 242 251 254
187 196 197 141 283 222 177 224 190 174 210 164 215 229 181 180 184 182 185 186 189 189 197 200 201 198 202 214 207 205 201 196 198 211 199 215 196 171 172 169 181 197 185 200 200 220 237 260 273